FW9047 Weather Reports


time (UTC)temp
F
wind
direction
speed
knots
gust
knots
rain 1hr
in
rain 24hr
in
rain mn
in
humidity
%
barometer
mb
20220812003203 76 338 1.7 5.2 0.00 0.00 0.00 68 1014.6
20220812001704 76 80 1.7 5.2 0.00 0.00 0.00 69 1014.6
20220811235703 76 39 1.7 5.2 0.00 0.00 0.00 67 1014.4
20220811234703 77 22 2.6 5.2 0.00 0.00 0.00 67 1014.6
20220811234204 78 68 1.7 4.3 0.00 0.00 0.00 64 1014.6
20220811232203 79 0 1.7 4.3 0.00 0.00 0.00 58 1014.3
20220811231203 79 0 1.7 1.7 0.00 0.00 0.00 54 1014.1
20220811230204 79 0 0.9 4.3 0.00 0.00 0.00 54 1014.1
20220811225703 79 322 0.9 1.7 0.00 0.00 0.00 52 1014.1
20220811225203 79 180 0.9 1.7 0.00 0.00 0.00 53 1014.2
20220811224203 79 180 1.7 4.3 0.00 0.00 0.00 53 1014.2
20220811221703 79 162 1.7 4.3 0.00 0.00 0.00 54 1014.4
20220811220203 79 202 1.7 2.6 0.00 0.00 0.00 54 1014.6
20220811215703 79 217 1.7 2.6 0.00 0.00 0.00 54 1014.6
20220811214703 79 180 1.7 2.6 0.00 0.00 0.00 54 1014.6
20220811213703 79 135 1.7 2.6 0.00 0.00 0.00 54 1014.6
20220811210204 78 135 0.9 2.6 0.00 0.00 0.00 58 1015.1
20220811205704 78 135 1.7 2.6 0.00 0.00 0.00 59 1015.1
20220811204204 78 248 2.6 5.2 0.00 0.00 0.00 60 1014.9
20220811203203 79 135 2.6 7.0 0.00 0.00 0.00 59 1015.0
20220811202703 79 81 3.5 7.0 0.00 0.00 0.00 59 1015.0
20220811202203 80 45 4.3 6.1 0.00 0.00 0.00 61 1015.0
20220811201703 80 74 4.3 7.0 0.00 0.00 0.00 59 1015.0
20220811201203 81 225 2.6 4.3 0.00 0.00 0.00 54 1014.5
20220811200204 81 0 0.9 1.7 0.00 0.00 0.00 50 1014.5
20220811195703 81 342 0.9 1.7 0.00 0.00 0.00 50 1014.5
20220811195204 81 22 0.9 0.9 0.00 0.00 0.00 50 1014.4
20220811194204 82 315 0.0 1.7 0.00 0.00 0.00 48 1014.4
20220811193204 82 158 0.0 0.9 0.00 0.00 0.00 48 1014.3
20220811190203 82 0 0.0 0.0 0.00 0.00 0.00 49 1014.1
20220811185704 83 166 0.0 1.7 0.00 0.00 0.00 49 1014.1
20220811185203 83 315 0.0 1.7 0.00 0.00 0.00 49 1013.9
20220811184704 82 356 0.0 1.7 0.00 0.00 0.00 48 1013.9
20220811183704 82 270 0.9 1.7 0.00 0.00 0.00 47 1013.9
20220811182704 82 194 0.9 2.6 0.00 0.00 0.00 47 1013.9
20220811181204 83 180 0.9 1.7 0.00 0.00 0.00 46 1013.9
20220811175204 82 292 1.7 4.3 0.00 0.00 0.00 47 1014.0
20220811174204 82 180 5.2 7.0 0.00 0.00 0.00 48 1014.0
20220811172203 84 158 4.3 6.1 0.00 0.00 0.00 46 1014.3
20220811171704 84 180 5.2 6.1 0.00 0.00 0.00 45 1014.3
20220811170204 86 180 1.7 8.7 0.00 0.00 0.00 43 1014.4
20220811165704 86 177 0.0 4.3 0.00 0.00 0.00 44 1014.4
20220811164703 86 126 0.9 1.7 0.00 0.00 0.00 45 1014.2
20220811164204 86 270 1.7 1.7 0.00 0.00 0.00 45 1014.2
20220811163704 87 292 1.7 5.2 0.00 0.00 0.00 45 1014.2
20220811163203 87 292 1.7 5.2 0.00 0.00 0.00 46 1014.4
20220811161202 88 22 1.7 4.3 0.00 0.00 0.00 44 1014.6
20220811160702 88 328 1.7 5.2 0.00 0.00 0.00 44 1014.6
20220811155202 90 292 2.6 2.6 0.00 0.00 0.00 44 1014.6
20220811154202 90 45 1.7 6.1 0.00 0.00 0.00 43 1014.6
20220811153702 90 0 1.7 4.3 0.00 0.00 0.00 43 1014.6
20220811152702 91 328 2.6 7.0 0.00 0.00 0.00 45 1014.1
20220811151703 91 282 1.7 6.1 0.00 0.00 0.00 45 1014.1
20220811150202 89 292 4.3 6.1 0.00 0.00 0.00 45 1014.1
20220811144702 89 264 5.2 6.1 0.00 0.00 0.00 47 1013.6
20220811144203 89 338 4.3 5.2 0.00 0.00 0.00 47 1013.6
20220811143703 90 348 2.6 8.7 0.00 0.00 0.00 47 1013.6
20220811142202 90 0 4.3 7.0 0.00 0.00 0.00 45 1013.6
20220811140702 90 50 4.3 7.8 0.00 0.00 0.00 40 1013.6
20220811140202 90 0 4.3 6.1 0.00 0.00 0.00 39 1013.6
20220811135202 90 0 4.3 7.0 0.00 0.00 0.00 40 1013.3
20220811134703 90 325 5.2 6.1 0.00 0.00 0.00 38 1013.3
20220811134202 90 292 4.3 7.0 0.00 0.00 0.00 40 1013.3
20220811133702 90 78 4.3 6.1 0.00 0.00 0.00 43 1013.3
20220811132702 89 0 6.1 8.7 0.00 0.00 0.00 41 1013.3
20220811131703 89 352 7.0 7.0 0.00 0.00 0.00 42 1013.3
20220811131202 89 0 6.1 7.8 0.00 0.00 0.00 42 1013.5
20220811125203 90 90 5.2 6.1 0.00 0.00 0.00 41 1013.5
20220811124703 89 0 6.1 7.8 0.00 0.00 0.00 42 1013.5
20220811124203 90 0 5.2 8.7 0.00 0.00 0.00 41 1013.5
20220811122702 89 0 7.0 10.4 0.00 0.00 0.00 40 1013.8
20220811122203 89 0 7.0 8.7 0.00 0.00 0.00 41 1013.8
20220811115703 89 338 6.1 10.4 0.00 0.00 0.00 37 1014.0
20220811114202 89 45 6.1 7.0 0.00 0.00 0.00 41 1014.2
20220811113702 89 0 6.1 8.7 0.00 0.00 0.00 39 1014.2
20220811112703 89 8 6.1 7.8 0.00 0.00 0.00 38 1014.1
20220811112202 89 0 6.1 10.4 0.00 0.00 0.00 40 1014.1
20220811111703 89 0 6.1 10.4 0.00 0.00 0.00 39 1014.1
20220811111202 89 22 5.2 8.7 0.00 0.00 0.00 37 1014.6
20220811110702 89 0 5.2 7.0 0.00 0.00 0.00 39 1014.6
20220811110203 88 22 6.1 6.1 0.00 0.00 0.00 38 1014.6
20220811104703 88 352 2.6 6.1 0.00 0.00 0.00 44 1014.6
20220811103703 88 351 2.6 4.3 0.00 0.00 0.00 46 1014.6
20220811102703 87 346 3.5 4.3 0.00 0.00 0.00 47 1014.9
20220811102202 87 338 4.3 6.1 0.00 0.00 0.00 48 1014.9
20220811094203 85 338 3.5 6.1 0.00 0.00 0.00 47 1014.9
20220811093703 85 284 4.3 4.3 0.00 0.00 0.00 49 1014.9
20220811092703 85 0 4.3 6.1 0.00 0.00 0.00 48 1014.9
20220811091702 84 344 5.2 7.0 0.00 0.00 0.00 49 1014.9
20220811091203 84 45 5.2 7.8 0.00 0.00 0.00 51 1014.8
20220811090703 84 344 4.3 6.1 0.00 0.00 0.00 53 1014.8
20220811085702 83 0 5.2 6.1 0.00 0.00 0.00 52 1014.8
20220811085202 83 0 5.2 7.0 0.00 0.00 0.00 52 1014.9
20220811084203 83 22 5.2 6.1 0.00 0.00 0.00 53 1014.9
20220811083202 82 0 4.3 6.1 0.00 0.00 0.00 51 1015.2
20220811082703 82 49 4.3 6.1 0.00 0.00 0.00 53 1015.2
20220811081203 82 22 4.3 7.0 0.00 0.00 0.00 52 1015.0
20220811080703 82 7 4.3 7.8 0.00 0.00 0.00 52 1015.0
20220811075702 82 38 5.2 7.8 0.00 0.00 0.00 51 1015.0
20220811071703 81 151 4.3 7.8 0.00 0.00 0.00 48 1015.0
20220811071202 81 22 4.3 7.0 0.00 0.00 0.00 49 1014.6
20220811070203 81 68 4.3 6.1 0.00 0.00 0.00 50 1014.6
20220811064703 80 298 2.6 6.1 0.00 0.00 0.00 48 1014.7
20220811064203 80 22 1.7 6.1 0.00 0.00 0.00 47 1014.7
20220811062703 80 61 1.7 4.3 0.00 0.00 0.00 48 1014.6
20220811062203 80 135 1.7 4.3 0.00 0.00 0.00 47 1014.6
20220811061203 80 45 0.9 2.6 0.00 0.00 0.00 48 1014.4
20220811055703 79 68 0.9 1.7 0.00 0.00 0.00 48 1014.4
20220811054702 79 165 0.9 1.7 0.00 0.00 0.00 47 1014.4
20220811054202 79 90 1.7 2.6 0.00 0.00 0.00 47 1014.4
20220811052703 79 154 0.9 2.6 0.00 0.00 0.00 47 1014.1
20220811051703 79 77 1.7 1.7 0.00 0.00 0.00 47 1014.1
20220811051203 79 135 1.7 2.6 0.00 0.00 0.00 47 1014.1
20220811050203 79 180 1.7 4.3 0.00 0.00 0.00 47 1014.1
20220811045702 79 167 1.7 4.3 0.00 0.00 0.00 47 1014.1
20220811045203 79 180 0.9 2.6 0.00 0.00 0.00 48 1014.1
20220811044703 78 133 0.9 2.6 0.00 0.00 0.00 48 1014.1
20220811044203 78 180 0.9 1.7 0.00 0.00 0.00 47 1014.1
20220811043703 78 166 0.9 2.6 0.00 0.00 0.00 48 1014.1
20220811041203 78 135 0.9 2.6 0.00 0.00 0.00 48 1013.9
20220811040203 78 45 0.9 2.6 0.00 0.00 0.00 48 1013.9
20220811034703 78 168 1.7 5.2 0.00 0.00 0.00 48 1013.9
20220811033203 78 180 1.7 4.3 0.00 0.00 0.00 49 1014.2
20220811032203 78 0 1.7 4.3 0.00 0.00 0.00 49 1014.2
20220811030704 79 126 1.7 5.2 0.00 0.00 0.00 49 1013.9
20220811030203 79 112 1.7 4.3 0.00 0.00 0.00 49 1013.9
20220811025703 79 169 1.7 4.3 0.00 0.00 0.00 50 1013.9
20220811024703 79 113 1.7 5.2 0.00 0.00 0.00 50 1013.9
20220811024203 79 158 0.9 4.3 0.00 0.00 0.00 49 1013.9
20220811023203 79 180 1.7 2.6 0.00 0.00 0.00 49 1014.1
20220811021703 79 135 1.7 4.3 0.00 0.00 0.00 49 1014.1
20220811021204 79 180 0.9 2.6 0.00 0.00 0.00 48 1014.3
20220811013703 80 160 0.0 0.0 0.00 0.00 0.00 46 1014.0
20220811012203 80 135 0.9 0.0 0.00 0.00 0.00 45 1014.2
20220811011703 80 157 1.7 1.7 0.00 0.00 0.00 45 1014.2
20220811011204 80 158 1.7 2.6 0.00 0.00 0.00 44 1014.1
20220811010703 80 172 1.7 2.6 0.00 0.00 0.00 44 1014.1
20220811005703 80 180 1.7 4.3 0.00 0.00 0.00 45 1014.1
20220811005203 80 135 1.7 2.6 0.00 0.00 0.00 45 1013.9